Regional Weather Roundup
Issued by NWS Upton, NY

Current Version | Previous Version | Graphics & Text | Print | Product List | Glossary Off
Versions: 1 2 3 4 5 6 7 8 9 10 11 12 13 14 15 16 17 18 19 20 21 22 23 24 25 26 27

000
ASUS41 KOKX 261605
RWROKX

REGIONAL WEATHER ROUNDUP
NATIONAL WEATHER SERVICE NEW YORK NY
1200 PM EDT THU MAY 26 2016

NOTE: "FAIR" INDICATES FEW OR NO CLOUDS BELOW 12,000 FEET WITH NO
SIGNIFICANT WEATHER AND/OR OBSTRUCTIONS TO VISIBILITY.

NYZ071-072-176-178-NJZ106-104-261700-
NEW YORK CITY METRO AREA


CITY           SKY/WX    TMP DP  RH WIND       PRES   REMARKS
CENTRAL PARK   SUNNY     86  55  34 VRB3      30.11S
LAGUARDIA APRT PTSUNNY   88  57  34 SW7       30.07F
KENNEDY INTL   PTSUNNY   80  55  42 S8        30.10F
NEWARK/LIBERTY PTSUNNY   89  52  28 VRB7      30.07F
BRNX BOT. GARD   N/A     88  54  31 SE8       30.10R
TETERBORO      SUNNY     87  52  29 VRB5      30.06F
$$

NYZ177-179-078>081-261700-
LONG ISLAND NEW YORK

CITY           SKY/WX    TMP DP  RH WIND       PRES   REMARKS
FARMINGDALE    MOSUNNY   81  56  42 S9        30.09F
ISLIP          PTSUNNY   82  54  37 S10       30.09F
SHIRLEY        MOSUNNY   83  54  36 S8        30.10F
RIVERHEAD        N/A     86  59  39 SW3       30.08S
WESTHAMPTON    SUNNY    N/A N/A N/A S7        30.11
EAST HAMPTON   FAIR      81  55  40 SE5       30.10R
MONTAUK POINT    N/A     78  58  49 VRB3      30.11S
$$

NYZ052-065-067-261700-
HUDSON VALLEY

CITY           SKY/WX    TMP DP  RH WIND       PRES   REMARKS
WHITE PLAINS   MOSUNNY   83  53  35 VRB3      30.09F
NEWBURGH       SUNNY     84  61  45 CALM      30.10F
MONTGOMERY     PTSUNNY   83  61  47 CALM      30.08F
POUGHKEEPSIE   PTSUNNY   84  57  39 CALM      30.07F
ALBANY         CLOUDY    78  58  49 VRB3      30.10S
$$

NJZ001-105-106-008-010-013-015-019>022-104-261700-
NEW JERSEY

CITY           SKY/WX    TMP DP  RH WIND       PRES   REMARKS
NEWARK/LIBERTY PTSUNNY   89  52  28 VRB7      30.07F
TETERBORO      SUNNY     87  52  29 VRB5      30.06F
CALDWELL       SUNNY     86  54  33 VRB3      30.08F
MORRISTOWN     PTSUNNY   86  55  35 SW7       30.08F
SOMERVILLE     SUNNY     85  58  39 S7        30.06F
SUSSEX         MOSUNNY   83  55  38 W5        30.08F
ANDOVER          N/A     85  53  33 MISG      30.09F
TRENTON        SUNNY     85  56  37 CALM      30.08F
MILLVILLE      SUNNY     85  54  34 VRB5      30.11F
ATLANTIC CITY  MOSUNNY   87  52  29 VRB3      30.10F
WRIGHTSTOWN    NOT AVBL
TOMS RIVER     MOSUNNY   90  52  27 SW7       30.09F
BELMAR         MOSUNNY   86  54  33 SW9       30.10F
$$

PAZ047>061-062-071-261700-
EASTERN PENNSYLVANIA

CITY           SKY/WX    TMP DP  RH WIND       PRES   REMARKS
PHILADELPHIA   PTSUNNY   83  57  41 S7        30.10F
ALLENTOWN      SUNNY     86  57  37 SW5       30.09F
SCRANTON       CLOUDY    79  55  43 CALM      30.10S
$$

CTZ002-004>006-009-010-012-RIZ004-006-007-MAZ004-011-015-261700-
SOUTHERN NEW ENGLAND
 IN CT

CITY           SKY/WX    TMP DP  RH WIND       PRES   REMARKS
BRADLEY INTL   PTSUNNY   84  58  40 VRB3      30.06F
HARTFORD       SUNNY     87  59  38 S6        30.07F
DANBURY        SUNNY     83  57  41 SE9       30.10F
WTRBRY/OXFORD  NOT AVBL
BRIDGEPORT     MOSUNNY   82  56  40 S3        30.09F
MERIDEN        SUNNY     87  57  35 VRB6      30.07F
NEW HAVEN      MOSUNNY   81  56  42 S5        30.09F
CHESTER        FAIR      84  59  42 S7        30.10F
GROTON         MOSUNNY   71  60  68 S9        30.09S
WILLIMANTIC    SUNNY     88  58  36 CALM      30.08F

 IN RI

CITY           SKY/WX    TMP DP  RH WIND       PRES   REMARKS
PROVIDENCE     PTSUNNY   84  54  35 S9        30.08F
BLOCK ISLAND   MOSUNNY   77  56  48 SW8       30.11S
WESTERLY       MOSUNNY   80  55  42 S10       30.10R

 IN MA

CITY           SKY/WX    TMP DP  RH WIND       PRES   REMARKS
BOSTON         MOSUNNY   72  57  59 E14       30.08F
WORCESTER      SUNNY     81  54  39 W9        30.11F
WESTFIELD      SUNNY     84  59  42 CALM      30.07F
PROVINCETOWN   MOSUNNY   72  57  59 NE8       30.10F
NANTUCKET      SUNNY     69  57  65 SW10      30.10S
$$

ANZ330-335-338-340-345-350-353-355-261700-
COASTAL MARINE OBSERVATIONS


STATION/POSITION TIME  SKY/WX   TEMP    WIND        PRES    VSBY  WAVE
                                AIR SEA DIR/SP/G                  HT/PER
                 (UTC)          (F)     (DEG/KT/KT) (MB)    (MI)  (FT/S)
NY HARB ENTRANCE 1450            64 61  190/  6/  8 1019.1          2/ 8
20S FIRE ISLAND  1450            61 58  220/  6/  6 1019.4          2/ 8
GREAT SOUTH BAY  1530            67 67  220/  6/  8   N/A
23 SSW MONTAUK P 1550            59 57  220/  4/  6 1019.2          3/ 6
15 E BARNEGAT LI 1522               57                N/A           2/11
HUDSON CANYON    1450            59 55              1020.3          2/ 8
KINGS POINT      1500            78 59              1018.6
EXECUTION ROCKS  NOT AVBL
CENTRAL LI SOUND 1500            67      CALM  /  2   N/A           0
EASTERN LI SOUND 1500            62 53  240/  4/  6   N/A
ROBBINS REEF     1500            77     160/  9/ 10 1018.1
$$


>>>>>>>>>>>>>>>>>>>>>>>>>>>> KEY <<<<<<<<<<<<<<<<<<<<<<<<<<<
>                                                          <
>     SKY/WX - SKY CONDITION/PRESENT WEATHER               <
>     TMP    - TEMPERATURE IN FAHRENHEIT                   <
>     DP     - DEWPOINT IN FAHRENHEIT                      <
>     RH     - RELATIVE HUMIDITY IN PERCENT                <
>     WIND   - DIRECTION AND SPEED IN MPH                  <
>     PRES   - MEAN SEA LEVEL PRESSURE IN INCHES OF HG     <
>     WCI    - WIND CHILL INDEX                            <
>     VSB    - VISIBILITY IN MILES                         <
>     HX     - HEAT INDEX                                  <
>     TC     - TEMPERATURE IN CELSIUS                      <
>     VRB    - VARIABLE WIND DIRECTION                     <
>                                                          <
>>>>>>>>>>>>>>>>>>>>>>>>>>>> KEY <<<<<<<<<<<<<<<<<<<<<<<<<<<






USA.gov is the U.S. government's official web portal to all federal, state and local government web resources and services.